This is the latest recevied weather packets stored in our database for station/object SALIDA. If no packets are shown the sender has not sent any weather packets the latest 10 day(s).
| Time | Temp. | Humidity | Pressure | Rain* | Wind** | Luminosity | Snow |
|---|---|---|---|---|---|---|---|
| 1788158531 | 58° F | 75% | 757.1 mmHg | 0 in | - | - | - |
| 1788157631 | 58° F | 74% | 757 mmHg | 0 in | - | - | - |
| 1788156731 | 58° F | 75% | 757.4 mmHg | 0 in | - | - | - |
| 1788155831 | 58° F | 75% | 757.9 mmHg | 0 in | - | - | - |
| 1788154931 | 59° F | 74% | 757.7 mmHg | 0 in | - | - | - |
| 1788154031 | 59° F | 73% | 757.5 mmHg | 0 in | - | - | - |
| 1788153131 | 59° F | 71% | 757.4 mmHg | 0 in | - | - | - |
| 1788152231 | 60° F | 70% | 757.2 mmHg | 0 in | - | - | - |
| 1788151331 | 60° F | 68% | 757.6 mmHg | 0 in | - | - | - |
| 1788150431 | 60° F | 69% | 757.9 mmHg | 0 in | - | - | - |
| 1788149531 | 60° F | 73% | 757.9 mmHg | 0 in | - | - | - |
| 1788148631 | 59° F | 75% | 757.6 mmHg | 0 in | - | - | - |
| 1788147731 | 59° F | 74% | 757.1 mmHg | 0 in | - | - | - |
| 1788146831 | 60° F | 74% | 756.7 mmHg | 0 in | - | - | - |
| 1788145931 | 60° F | 74% | 756.5 mmHg | 0 in | - | - | - |
| 1788145031 | 60° F | 72% | 756.1 mmHg | 0 in | - | - | - |
| 1788144131 | 61° F | 69% | 756.5 mmHg | 0 in | - | - | - |
| 1788143231 | 61° F | 76% | 756.5 mmHg | 0 in | - | - | - |
| 1788142331 | 62° F | 78% | 756.1 mmHg | 0 in | - | - | - |
| 1788141431 | 62° F | 75% | 755.4 mmHg | 0 in | - | - | - |
| 1788140531 | 62° F | 76% | 754.6 mmHg | 0.01 in | - | - | - |
| 1788139632 | 63° F | 76% | 754.5 mmHg | 0.01 in | - | - | - |
| 1788138732 | 63° F | 70% | 754.6 mmHg | 0.01 in | - | - | - |
| 1788137832 | 64° F | 68% | 754.9 mmHg | 0.01 in | - | - | - |
| 1788136932 | 67° F | 62% | 754.6 mmHg | 0 in | - | - | - |
* Rain latest hour (hover to see other rain measurements)
** Current wind speed in m/s (hover to see current wind gust speed)